EA8CHC Sevilla ES current weather conditions

sailwx.info

Wind from 215

Air temperature 13.3° C
Dewpoint 10.9° C

Last reported at 2017-Feb-26 00:52 UTC.
Time now 2017-Feb-26 01:06 UTC

Location: N 37°26' W 006°03'.
View on Google Maps.

See reports from other nearby stations

  
Tides and Currents Weather Stations Pressure Air Temp Water Temp Dewpoint Dewpoint Depression Visibility Wind Speed Wind Dir Waves Ship Positions
date/time (UTC)wind fromknots sea level pressurealtimeterstation pressurevisibilityair tempwater tempwave heightnotes
2017-Feb-26 00:52 215 13.3
2017-Feb-26 00:47 215 13.3
2017-Feb-26 00:42 215 13.3
2017-Feb-26 00:37 215 13.3
2017-Feb-26 00:32 215 13.3
2017-Feb-26 00:27 215 13.9
2017-Feb-26 00:22 215 0 gusting 1 13.9
2017-Feb-26 00:17 244 13.9
2017-Feb-26 00:12 244 14.4
2017-Feb-26 00:07 244 14.4
2017-Feb-26 00:02 244 14.4
2017-Feb-25 23:57 244 0 gusting 2 14.4
2017-Feb-25 23:52 240 0 gusting 2 14.4
2017-Feb-25 23:47 240 14.4
2017-Feb-25 23:42 315 14.4
2017-Feb-25 23:37 223 14.4
2017-Feb-25 23:32 252 14.4
2017-Feb-25 23:27 252 14.4
2017-Feb-25 23:22 252 14.4
2017-Feb-25 23:17 252 0 gusting 6 14.4
2017-Feb-25 23:12 261 2 gusting 7 14.4
2017-Feb-25 23:07 261 3 gusting 7 15.0
2017-Feb-25 23:02 273 4 gusting 6 15.0
2017-Feb-25 22:57 246 4 gusting 6 15.0
2017-Feb-25 22:52 262 4 gusting 6 15.0
2017-Feb-25 22:47 271 4 gusting 6 15.0
2017-Feb-25 22:42 263 3 gusting 6 15.0
2017-Feb-25 22:37 282 4 gusting 6 15.0
2017-Feb-25 22:32 265 5 gusting 7 15.0
2017-Feb-25 22:27 247 5 gusting 7 15.0
2017-Feb-25 22:22 260 4 gusting 7 15.0
2017-Feb-25 22:17 274 5 gusting 7 15.0
2017-Feb-25 22:12 245 5 gusting 8 15.0
2017-Feb-25 22:07 254 5 gusting 8 15.0
2017-Feb-25 22:02 256 5 gusting 9 15.0
2017-Feb-25 21:57 265 5 gusting 9 15.0
2017-Feb-25 21:52 273 5 gusting 9 15.0
2017-Feb-25 21:47 250 5 gusting 9 15.0
2017-Feb-25 21:42 259 5 gusting 9 15.0
2017-Feb-25 21:37 246 5 gusting 9 15.0
2017-Feb-25 21:32 266 5 gusting 6 15.0
2017-Feb-25 21:27 244 4 gusting 6 15.0
2017-Feb-25 21:22 253 3 gusting 6 15.0
2017-Feb-25 21:17 237 2 gusting 6 15.0
2017-Feb-25 21:12 242 3 gusting 7 15.0
2017-Feb-25 21:07 263 3 gusting 7 15.0
2017-Feb-25 21:02 284 3 gusting 8 15.0
2017-Feb-25 20:57 272 3 gusting 8 15.0
2017-Feb-25 20:52 266 4 gusting 8 15.0
2017-Feb-25 20:47 246 4 gusting 8 15.0
2017-Feb-25 20:42 278 4 gusting 10 15.0
2017-Feb-25 20:37 241 5 gusting 10 15.0
2017-Feb-25 20:32 253 5 gusting 9 15.0
2017-Feb-25 20:22 235 5 gusting 9 15.0
2017-Feb-25 20:17 200 4 gusting 9 15.0
2017-Feb-25 20:12 192 5 gusting 9 15.0
2017-Feb-25 20:07 196 5 gusting 9 15.0
2017-Feb-25 20:02 223 5 gusting 9 15.0
2017-Feb-25 19:57 209 6 gusting 9 15.0
2017-Feb-25 19:52 232 6 gusting 9 15.0
2017-Feb-25 19:47 224 6 gusting 9 15.0
2017-Feb-25 19:42 212 5 gusting 10 15.0
2017-Feb-25 19:37 227 5 gusting 10 15.0
2017-Feb-25 19:32 192 5 gusting 10 15.0
2017-Feb-25 19:27 234 5 gusting 10 15.0
2017-Feb-25 19:22 233 5 gusting 10 15.0
2017-Feb-25 19:17 242 5 gusting 10 15.0
2017-Feb-25 19:12 227 5 gusting 8 15.6
2017-Feb-25 19:07 212 5 gusting 8 15.6
2017-Feb-25 19:02 233 5 gusting 8 15.6
2017-Feb-25 18:57 231 5 gusting 8 15.6
2017-Feb-25 18:52 212 5 gusting 7 15.6
2017-Feb-25 18:47 236 5 gusting 7 15.6
2017-Feb-25 18:42 229 4 gusting 7 15.6
2017-Feb-25 18:37 183 4 gusting 7 15.6
2017-Feb-25 18:32 196 3 gusting 6 15.6
2017-Feb-25 18:27 226 2 gusting 6 15.6
2017-Feb-25 18:22 219 0 gusting 3 15.6
2017-Feb-25 18:17 217 16.1
2017-Feb-25 18:12 189 0 gusting 3 16.1
2017-Feb-25 18:07 172 0 gusting 3 16.1
2017-Feb-25 18:02 130 0 gusting 3 16.1
2017-Feb-25 17:57 128 0 gusting 3 16.7
2017-Feb-25 17:52 123 0 gusting 3 16.7
2017-Feb-25 17:47 128 16.7
2017-Feb-25 17:42 138 16.7
2017-Feb-25 17:37 138 16.7
2017-Feb-25 17:32 150 0 gusting 3 16.7
2017-Feb-25 17:27 158 0 gusting 3 16.7
2017-Feb-25 17:22 195 0 gusting 3 16.7
2017-Feb-25 17:17 231 0 gusting 3 16.7
2017-Feb-25 17:12 232 0 gusting 6 16.7
2017-Feb-25 17:07 223 1 gusting 6 17.2
2017-Feb-25 17:02 202 2 gusting 6 17.2
2017-Feb-25 16:57 207 2 gusting 6 17.2
2017-Feb-25 16:52 204 2 gusting 6 17.2
2017-Feb-25 16:47 196 2 gusting 6 17.2
2017-Feb-25 16:42 152 3 gusting 6 17.2
2017-Feb-25 16:37 221 3 gusting 6 17.2
2017-Feb-25 16:32 214 3 gusting 6 17.2
2017-Feb-25 16:27 201 3 gusting 6 17.2
2017-Feb-25 16:22 215 2 gusting 5 17.2
2017-Feb-25 16:17 192 2 gusting 5 17.2
2017-Feb-25 16:12 209 1 gusting 6 17.2
2017-Feb-25 16:07 204 0 gusting 6 17.2
2017-Feb-25 16:02 233 1 gusting 6 17.2
2017-Feb-25 15:57 263 2 gusting 6 17.2
2017-Feb-25 15:52 277 2 gusting 6 17.2
2017-Feb-25 15:47 270 1 gusting 6 17.2
2017-Feb-25 15:42 297 2 gusting 5 17.2
2017-Feb-25 15:37 282 3 gusting 5 17.2
2017-Feb-25 15:32 275 3 gusting 5 17.2
2017-Feb-25 15:27 302 2 gusting 5 17.2
2017-Feb-25 15:22 271 1 gusting 5 17.2
2017-Feb-25 15:17 232 2 gusting 5 17.2
2017-Feb-25 15:12 215 2 gusting 5 17.2
2017-Feb-25 15:07 250 2 gusting 5 17.2
2017-Feb-25 15:02 173 1 gusting 6 17.2
2017-Feb-25 14:57 234 0 gusting 6 16.7
2017-Feb-25 14:52 254 2 gusting 6 16.7
2017-Feb-25 14:47 241 3 gusting 6 16.7
2017-Feb-25 14:42 219 3 gusting 5 16.7
2017-Feb-25 14:37 250 2 gusting 5 16.7
2017-Feb-25 14:32 207 1 gusting 5 16.7
2017-Feb-25 14:27 225 0 gusting 5 16.7
2017-Feb-25 14:22 203 1 gusting 4 16.7
2017-Feb-25 14:17 213 2 gusting 4 16.7
2017-Feb-25 14:12 226 1 gusting 4 16.7
2017-Feb-25 14:07 223 0 gusting 4 16.7
2017-Feb-25 14:02 237 16.7
2017-Feb-25 13:57 251 16.7
2017-Feb-25 13:52 251 0 gusting 4 16.7
2017-Feb-25 13:47 252 0 gusting 4 16.7
2017-Feb-25 09:47 016 12.8
2017-Feb-25 09:42 016 12.8
2017-Feb-25 09:37 016 12.8
2017-Feb-25 09:32 016 12.8
2017-Feb-25 09:27 313 12.8
2017-Feb-25 09:22 313 12.8
2017-Feb-25 09:17 313 12.8
2017-Feb-25 09:12 313 12.8
2017-Feb-25 09:07 313 12.8
2017-Feb-25 09:02 313 12.2
2017-Feb-25 08:57 313 12.2
2017-Feb-25 08:52 313 12.2
2017-Feb-25 08:47 313 12.2
2017-Feb-25 08:42 313 12.2
2017-Feb-25 08:37 313 12.2
2017-Feb-25 08:32 313 12.2
2017-Feb-25 08:27 313 12.2
2017-Feb-25 08:22 313 12.2
2017-Feb-25 08:17 313 12.2
2017-Feb-25 08:12 313 12.2
2017-Feb-25 08:07 313 12.2
2017-Feb-25 08:02 313 12.2
2017-Feb-25 07:57 313 11.7
2017-Feb-25 07:52 313 11.7
2017-Feb-25 07:47 313 11.7
2017-Feb-25 07:42 313 11.7
2017-Feb-25 07:37 313 11.7
2017-Feb-25 07:32 313 11.7
2017-Feb-25 07:27 313 11.7
2017-Feb-25 07:22 313 11.7
2017-Feb-25 07:17 313 11.7
2017-Feb-25 07:12 313 11.7
2017-Feb-25 07:07 313 11.7
2017-Feb-25 07:02 313 0 gusting 1 11.7
2017-Feb-25 06:57 313 0 gusting 1 11.7
2017-Feb-25 06:52 313 11.7
2017-Feb-25 06:47 313 11.7
2017-Feb-25 06:42 313 11.7
2017-Feb-25 06:37 313 11.7
2017-Feb-25 06:32 313 11.7
2017-Feb-25 06:27 313 11.7
2017-Feb-25 06:22 313 11.7
2017-Feb-25 06:17 313 11.7
2017-Feb-25 06:12 313 11.7
2017-Feb-25 06:07 313 11.7
2017-Feb-25 06:02 313 11.7
2017-Feb-25 05:57 313 11.7
2017-Feb-25 05:52 313 11.7
2017-Feb-25 05:47 313 11.7
2017-Feb-25 05:42 313 11.7
2017-Feb-25 05:37 313 11.7
2017-Feb-25 05:32 313 11.7
2017-Feb-25 05:27 313 11.7
2017-Feb-25 05:22 313 11.7
2017-Feb-25 05:17 313 11.7
2017-Feb-25 05:12 313 11.7
2017-Feb-25 05:07 313 11.7
2017-Feb-25 05:02 313 11.7
2017-Feb-25 04:57 313 11.7
2017-Feb-25 04:52 313 11.7
2017-Feb-25 04:47 284 11.7
2017-Feb-25 04:42 171 12.2
2017-Feb-25 04:37 169 12.2
2017-Feb-25 04:32 169 12.2
2017-Feb-25 04:27 169 12.2
2017-Feb-25 04:22 169 12.2
2017-Feb-25 04:17 169 12.2
2017-Feb-25 04:12 159 12.2
2017-Feb-25 04:07 159 12.2
2017-Feb-25 04:02 158 12.2
2017-Feb-25 03:57 158 12.2
2017-Feb-25 03:52 158 12.2
2017-Feb-25 03:47 158 12.2
2017-Feb-25 03:42 158 12.2
2017-Feb-25 03:37 158 12.2
2017-Feb-25 03:32 158 12.2
2017-Feb-25 03:27 158 0 gusting 3 12.2
2017-Feb-25 03:22 157 0 gusting 4 12.2
2017-Feb-25 03:17 155 0 gusting 4 12.2
2017-Feb-25 03:12 161 1 gusting 4 12.2
2017-Feb-25 03:07 152 1 gusting 4 12.2
2017-Feb-25 03:02 150 1 gusting 4 12.2
2017-Feb-25 02:57 143 1 gusting 4 12.2
2017-Feb-25 02:52 118 0 12.2
2017-Feb-25 02:47 230 12.2
2017-Feb-25 02:42 231 12.2
2017-Feb-25 02:37 231 12.2
2017-Feb-25 02:32 231 0 gusting 4 12.2
2017-Feb-25 02:27 231 1 gusting 4 12.2
2017-Feb-25 02:22 231 2 gusting 4 11.7
2017-Feb-25 02:17 235 2 gusting 4 11.7
2017-Feb-25 02:12 226 1 gusting 4 11.7
2017-Feb-25 02:07 216 1 gusting 4 11.7
2017-Feb-25 02:02 215 1 gusting 5 11.7
2017-Feb-25 01:57 206 1 gusting 5 11.7
2017-Feb-25 01:52 202 2 gusting 5 11.7
2017-Feb-25 01:47 161 1 gusting 4 11.7
2017-Feb-25 01:42 152 1 gusting 4 11.7
2017-Feb-25 01:37 193 1 gusting 4 11.7
2017-Feb-25 01:32 183 1 gusting 4 11.7
2017-Feb-25 01:27 186 1 gusting 4 11.7
2017-Feb-25 01:22 222 1 gusting 3 11.7
2017-Feb-25 01:17 230 0 gusting 2 11.7
2017-Feb-25 01:12 230 12.2
2017-Feb-25 01:07 291 12.2
2017-Feb-25 01:02 292 12.2
2017-Feb-25 00:57 292 12.2
2017-Feb-25 00:52 292 12.2
2017-Feb-25 00:47 292 12.2
2017-Feb-25 00:42 292 12.2
2017-Feb-25 00:37 291 12.2
2017-Feb-25 00:32 291 12.2
2017-Feb-25 00:27 291 12.2
2017-Feb-25 00:22 292 0 gusting 1 12.2
2017-Feb-25 00:17 291 0 gusting 0 12.2
2017-Feb-25 00:12 220 12.2
2017-Feb-25 00:07 220 12.8
2017-Feb-25 00:02 220 12.8
2017-Feb-24 23:57 220 12.8
2017-Feb-24 23:52 220 0 gusting 3 12.8
2017-Feb-24 23:47 220 0 gusting 4 12.8
2017-Feb-24 23:42 221 0 gusting 4 12.8
2017-Feb-24 23:37 218 0 gusting 4 12.8
2017-Feb-24 23:32 246 0 gusting 3 12.8
2017-Feb-24 23:27 234 1 gusting 3 12.8
2017-Feb-24 23:22 247 1 gusting 3 12.8
2017-Feb-24 23:17 248 0 gusting 3 12.8
2017-Feb-24 23:12 234 12.8
2017-Feb-24 23:07 238 13.3
2017-Feb-24 23:02 238 0 gusting 5 13.3
2017-Feb-24 22:57 238 0 gusting 5 13.3
2017-Feb-24 22:52 196 1 gusting 5 13.3
2017-Feb-24 22:47 172 1 gusting 4 13.3
2017-Feb-24 22:42 211 0 gusting 5 13.3
2017-Feb-24 22:37 183 0 gusting 5 13.3
2017-Feb-24 22:32 181 0 gusting 4 13.3
2017-Feb-24 22:27 192 0 gusting 4 13.3
2017-Feb-24 22:22 162 0 gusting 4 13.3
2017-Feb-24 22:17 174 1 gusting 5 13.3
2017-Feb-24 22:12 178 2 gusting 6 13.3
2017-Feb-24 22:07 155 2 gusting 6 13.3
2017-Feb-24 22:02 157 3 gusting 6 13.3
2017-Feb-24 21:57 146 3 gusting 6 13.9
2017-Feb-24 21:52 144 2 gusting 6 13.9
2017-Feb-24 21:47 137 2 gusting 6 13.9
2017-Feb-24 21:42 160 1 gusting 6 13.9
2017-Feb-24 21:37 165 2 gusting 6 13.9
2017-Feb-24 21:32 200 3 gusting 5 13.9
2017-Feb-24 21:27 165 2 gusting 5 13.9
2017-Feb-24 21:22 186 1 gusting 4 13.9
2017-Feb-24 21:17 169 1 gusting 4 13.9
2017-Feb-24 21:12 163 1 gusting 4 13.9
2017-Feb-24 21:07 146 1 gusting 4 14.4
2017-Feb-24 21:02 150 1 gusting 6 14.4
2017-Feb-24 20:57 150 2 gusting 6 14.4
2017-Feb-24 20:52 191 2 gusting 6 14.4
2017-Feb-24 20:47 183 1 gusting 4 15.0
2017-Feb-24 20:42 159 0 gusting 2 15.0
2017-Feb-24 20:37 209 0 gusting 3 15.0
2017-Feb-24 20:32 209 0 gusting 3 15.0
2017-Feb-24 20:27 209 0 gusting 3 15.0
2017-Feb-24 20:22 215 0 gusting 3 15.0
2017-Feb-24 20:17 217 0 gusting 3 15.0
2017-Feb-24 20:12 247 0 gusting 5 15.0
2017-Feb-24 20:07 248 0 gusting 5 15.0
2017-Feb-24 20:02 252 1 gusting 4 15.6
2017-Feb-24 19:57 243 1 gusting 4 15.6
2017-Feb-24 19:52 226 1 gusting 5 15.0
2017-Feb-24 19:47 149 2 gusting 6 15.0
2017-Feb-24 19:42 159 2 gusting 6 15.0
2017-Feb-24 19:37 175 2 gusting 6 15.6
2017-Feb-24 19:32 157 2 gusting 6 15.6
2017-Feb-24 19:27 202 2 gusting 6 15.6
2017-Feb-24 19:22 171 2 gusting 6 15.6
2017-Feb-24 19:17 230 1 gusting 5 15.6
2017-Feb-24 19:12 207 1 gusting 6 15.6
2017-Feb-24 19:07 186 1 gusting 6 15.6
2017-Feb-24 19:02 182 2 gusting 6 16.1
2017-Feb-24 18:57 192 2 gusting 6 16.1
2017-Feb-24 18:52 191 3 gusting 6 16.1
2017-Feb-24 18:47 193 3 gusting 8 16.1
2017-Feb-24 18:42 194 4 gusting 8 16.7
2017-Feb-24 18:37 185 4 gusting 11 16.7
2017-Feb-24 18:32 198 4 gusting 11 16.7
2017-Feb-24 18:27 217 4 gusting 11 16.7
2017-Feb-24 18:22 227 4 gusting 7 17.2
2017-Feb-24 18:17 205 3 gusting 6 17.2
2017-Feb-24 18:12 194 3 gusting 6 17.2
2017-Feb-24 18:07 176 3 gusting 6 17.2
2017-Feb-24 18:02 196 2 gusting 7 17.8
2017-Feb-24 17:57 230 3 gusting 7 17.8
2017-Feb-24 17:52 223 4 gusting 7 17.8
2017-Feb-24 17:47 177 4 gusting 7 17.8
2017-Feb-24 17:42 229 4 gusting 7 17.8
2017-Feb-24 17:37 208 4 gusting 9 18.3
2017-Feb-24 17:32 195 5 gusting 7 18.3
2017-Feb-24 17:27 194 4 gusting 7 18.3
2017-Feb-24 17:22 202 3 gusting 7 18.3
2017-Feb-24 17:17 221 2 gusting 7 18.9
2017-Feb-24 17:12 194 3 gusting 7 18.9
2017-Feb-24 17:07 183 3 gusting 7 18.9
2017-Feb-24 17:02 180 4 gusting 7 18.9
2017-Feb-24 16:57 142 4 gusting 8 18.9
2017-Feb-24 16:52 192 2 gusting 8 19.4
2017-Feb-24 16:47 180 3 gusting 8 18.9
2017-Feb-24 16:42 221 4 gusting 8 18.9
2017-Feb-24 16:37 194 4 gusting 8 18.9
2017-Feb-24 16:32 199 3 gusting 8 19.4
2017-Feb-24 16:27 183 3 gusting 8 19.4
2017-Feb-24 16:22 164 3 gusting 8 19.4
2017-Feb-24 16:17 189 3 gusting 6 19.4
2017-Feb-24 16:12 175 3 gusting 6 19.4
2017-Feb-24 16:07 206 3 gusting 6 19.4
2017-Feb-24 16:02 225 3 gusting 6 19.4
2017-Feb-24 15:57 229 3 gusting 6 19.4
2017-Feb-24 15:52 210 3 gusting 6 19.4
2017-Feb-24 15:47 153 2 gusting 6 19.4
2017-Feb-24 15:42 227 2 gusting 6 19.4
2017-Feb-24 15:37 234 1 gusting 6 19.4
2017-Feb-24 15:32 267 2 gusting 6 19.4
2017-Feb-24 15:27 259 3 gusting 6 19.4
2017-Feb-24 15:22 249 2 gusting 6 19.4
2017-Feb-24 15:17 169 1 gusting 6 18.9
2017-Feb-24 15:12 204 2 gusting 7 18.9
2017-Feb-24 15:07 150 2 gusting 7 18.3
2017-Feb-24 11:02 104 0 gusting 3 11.7
2017-Feb-24 10:57 115 0 gusting 3 11.7
2017-Feb-24 10:52 115 11.7
2017-Feb-24 10:47 115 11.7
2017-Feb-24 10:42 115 11.1
2017-Feb-24 10:37 089 0 gusting 4 11.1
2017-Feb-24 10:32 089 1 gusting 4 11.1
2017-Feb-24 10:27 089 0 gusting 4 11.1
2017-Feb-24 10:22 115 11.1
2017-Feb-24 10:17 068 11.1
2017-Feb-24 10:12 016 11.1
2017-Feb-24 10:07 016 0 gusting 3 11.1
2017-Feb-24 10:02 018 0 gusting 4 11.1
2017-Feb-24 09:57 065 11.1
2017-Feb-24 09:52 065 0 gusting 4 11.1
2017-Feb-24 09:47 053 1 gusting 4 11.1
2017-Feb-24 09:42 047 0 gusting 3 11.1
2017-Feb-24 09:37 057 0 gusting 4 11.1
2017-Feb-24 09:32 057 1 gusting 4 11.1
2017-Feb-24 09:27 096 1 gusting 4 10.6
2017-Feb-24 09:22 053 1 gusting 4 10.6
2017-Feb-24 09:17 094 0 gusting 4 10.6
2017-Feb-24 09:12 094 1 gusting 4 10.6
2017-Feb-24 09:07 095 2 gusting 4 10.6
2017-Feb-24 09:02 095 2 gusting 5 10.6
2017-Feb-24 08:57 098 1 gusting 5 10.6
2017-Feb-24 08:52 098 1 gusting 5 10.6
2017-Feb-24 08:47 097 0 gusting 3 10.6
2017-Feb-24 08:42 084 0 gusting 3 10.6
2017-Feb-24 08:37 084 1 gusting 3 10.6
2017-Feb-24 08:32 084 1 gusting 3 10.6
2017-Feb-24 08:27 084 1 gusting 3 10.6
2017-Feb-24 08:22 084 1 gusting 3 10.6
2017-Feb-24 08:17 084 0 gusting 3 10.6
2017-Feb-24 08:12 084 0 gusting 3 10.6
2017-Feb-24 08:07 058 0 gusting 3 10.6
2017-Feb-24 08:02 058 1 gusting 3 10.6
2017-Feb-24 07:57 058 1 gusting 3 10.6
2017-Feb-24 07:52 005 10.6
2017-Feb-24 07:47 315 10.6
2017-Feb-24 07:42 315 10.6
2017-Feb-24 07:37 315 10.6
2017-Feb-24 07:32 315 10.6
2017-Feb-24 07:27 315 10.6
2017-Feb-24 07:22 315 10.6
2017-Feb-24 07:17 315 10.6
2017-Feb-24 07:12 315 10.6
2017-Feb-24 07:07 315 10.6
2017-Feb-24 07:02 315 10.6
2017-Feb-24 06:57 315 10.6
2017-Feb-24 06:52 315 11.1
2017-Feb-24 06:47 315 11.1
2017-Feb-24 06:42 315 11.1
2017-Feb-24 06:37 315 11.1
2017-Feb-24 06:32 315 11.1
2017-Feb-24 06:27 315 11.1
2017-Feb-24 06:22 315 11.1
2017-Feb-24 06:17 315 11.1
2017-Feb-24 06:12 315 11.1
2017-Feb-24 06:07 315 11.1
2017-Feb-24 06:02 315 11.1
2017-Feb-24 05:57 315 11.1
2017-Feb-24 05:52 315 10.6
2017-Feb-24 05:47 315 10.6
2017-Feb-24 05:42 315 10.6
2017-Feb-24 05:37 315 10.6
2017-Feb-24 05:32 315 10.6
2017-Feb-24 05:27 315 10.6
2017-Feb-24 05:22 316 10.6
2017-Feb-24 05:17 317 10.6
2017-Feb-24 05:12 309 1 gusting 5 10.6
2017-Feb-24 05:07 290 2 gusting 5 10.6
2017-Feb-24 05:02 295 1 gusting 0 11.1
2017-Feb-24 04:57 279 11.1
2017-Feb-24 04:52 279 11.1
2017-Feb-24 04:47 279 11.1
2017-Feb-24 04:42 279 11.1
2017-Feb-24 04:37 279 11.1
2017-Feb-24 04:32 279 11.1
2017-Feb-24 04:27 279 11.1
2017-Feb-24 04:22 279 11.1
2017-Feb-24 04:17 279 11.1
2017-Feb-24 04:12 279 11.1
2017-Feb-24 04:07 279 11.1
2017-Feb-24 04:02 279 11.1
2017-Feb-24 03:57 279 11.1
2017-Feb-24 03:52 279 11.1
2017-Feb-24 03:47 279 11.7
2017-Feb-24 03:42 279 11.7
2017-Feb-24 03:37 279 11.7
2017-Feb-24 03:32 279 11.7
2017-Feb-24 03:27 279 11.7
2017-Feb-24 03:22 279 11.7
2017-Feb-24 03:17 279 11.7
2017-Feb-24 03:12 279 11.7
2017-Feb-24 03:07 279 11.7
2017-Feb-24 03:02 279 11.7
2017-Feb-24 02:57 279 11.7
2017-Feb-24 02:52 279 11.7
2017-Feb-24 02:47 279 11.7
2017-Feb-24 02:42 279 11.7
2017-Feb-24 02:37 279 12.2
2017-Feb-24 02:32 279 12.2
2017-Feb-24 02:27 279 0 gusting 2 12.2
2017-Feb-24 02:22 279 12.2
2017-Feb-24 02:17 277 12.8
2017-Feb-24 02:12 277 0 gusting 4 12.8
2017-Feb-24 02:07 277 1 gusting 4 12.8
2017-Feb-24 02:02 275 2 gusting 4 12.8
2017-Feb-24 01:57 282 2 gusting 4 12.8
2017-Feb-24 01:52 281 1 gusting 3 12.8
2017-Feb-24 01:47 275 0 gusting 3 12.8
2017-Feb-24 01:42 263 12.8
2017-Feb-24 01:37 263 0 gusting 3 12.8
2017-Feb-24 01:32 263 0 gusting 3 12.8
2017-Feb-24 01:27 291 0 gusting 4 12.8
2017-Feb-24 01:22 291 1 gusting 4 12.8
2017-Feb-24 01:17 291 1 gusting 3 12.8
2017-Feb-24 01:12 287 1 gusting 4 12.8
2017-Feb-24 01:07 275 1 gusting 4 12.8
2017-Feb-24 01:02 275 2 gusting 3 12.2